Zurück zum Katalog

STARLINK-34144

AktivKommunikationVLEO
NORAD 63958·PAYLOAD·🇺🇸 United States

Gestartet May 13, 2025 von Cape Canaveral Space Force Station

Loading…

Nächste Überflüge (nächste 24 Stunden)

TLE

AktuellSource: CelesTrak SupGP

Epoche: Sep 15, 2026, 03:34 UTC

1 63958C 25099G   26258.14909722 -.00012529  00000+0 -45390-3 0  2585
2 63958  43.0013 186.4094 0001117 277.8080 306.6336 15.27578437    15

Verfolge STARLINK-34144 in Echtzeit mit AllMySat

Download on the App Store